sat.trackr.live / text

‹ back to catalog

STARLINK-34709

NORAD 64844 · 2025-152C

PAYLOAD ACTIVE UNKNOWN

§ Identity

Operator
Country
US
Launch date
2025-07-19
Launch site
AFWTR
Launch vehicle
Mass (kg)
RCS (m²)

Purposes: comms

External: N2YO · Heavens-Above · Gunter

§ Orbital elements

Epoch: 2026-09-20T12:46:16.076928Z

Period
93.91 min
Inclination
97.2842°
Eccentricity
0.0001961
Mean motion
15.33448180 rev/d
Perigee alt
464.2 km
Apogee alt
466.9 km
Semi-major
6,843.7 km
B*
4.5072e-4
RAAN
114.0105°
Arg perigee
84.0199°
Mean anomaly
276.1267°
Rev number
6,482

§ Raw data

STARLINK-347091 64844U 25152C   26263.53213052  .00014506  00000+0  45072-3 0  99972 64844  97.2842 114.0105 0001961  84.0199 276.1267 15.33448180 64828

JSON: /api/v1/satellites/64844 · /tle

For live sub-satellite position, see the globe view (requires WebGL).

§ Visibility from observer

Set your observer location to see the next 7 days of passes ≥ 10°. The values pass through the URL so the page stays shareable.

No JS? Fill the form by hand. The geolocation button needs JavaScript.